Location: Austin
(30.3000°N, 97.7500°W)
Time: 00:54:36
(UTC-05:00)

SEDSat Delta rocket - Pass Details

Date: 15 May 2024
Orbit: 530 x 982 km, 31.4° (Epoch: 29 May)

Event Time Altitude Azimuth Distance (km) Brightness Sun altitude
Rises 20:58:24 0° 281° (W) 3,132 8.3 -8.6°
Reaches altitude 10° 21:01:00 10° 277° (W) 2,131 7.1 -9.1°
Maximum altitude 21:05:50 56° 200° (SSW) 745 3.4 -10.0°
Enters shadow 21:09:22 15° 124° (SE) 1,614 4.5 -10.7°
